Time,TemperatureF,DewpointF,PressureIn,WindDirection,WindDirectionDegrees,WindSpeedMPH,WindSpeedGustMPH,Humidity,HourlyPrecipIn,Conditions,Clouds,dailyrainin,SoftwareType,DateUTC
2013-02-20 00:52:00,34.0,32.0,30.10,East,98,2.0,8.0,92,0.00,,,0.01,,2013-02-20 00:52:00,
2013-02-20 01:02:00,34.0,32.0,30.10,East,95,2.0,7.0,94,0.00,,,0.01,,2013-02-20 01:02:00,
2013-02-20 01:11:00,34.0,32.0,30.10,East,95,2.0,7.0,94,0.00,,,0.01,,2013-02-20 01:11:00,
2013-02-20 01:21:00,34.0,32.0,30.10,East,95,2.0,7.0,94,0.00,,,0.01,,2013-02-20 01:21:00,
2013-02-20 01:31:00,34.0,32.0,30.10,East,95,2.0,7.0,94,0.00,,,0.01,,2013-02-20 01:31:00,
2013-02-20 01:41:00,34.0,32.0,30.10,East,95,2.0,7.0,94,0.00,,,0.01,,2013-02-20 01:41:00,
2013-02-20 01:52:00,35.0,34.0,30.11,East,92,1.0,4.0,96,0.00,,,0.01,,2013-02-20 01:52:00,
2013-02-20 02:01:00,35.0,34.0,30.11,East,92,1.0,4.0,96,0.00,,,0.01,,2013-02-20 02:01:00,
2013-02-20 02:11:00,35.0,34.0,30.11,East,92,1.0,4.0,96,0.00,,,0.01,,2013-02-20 02:11:00,
2013-02-20 02:21:00,35.0,34.0,30.12,East,97,1.0,3.0,96,0.00,,,0.01,,2013-02-20 02:21:00,
2013-02-20 02:31:00,35.0,34.0,30.12,East,97,1.0,3.0,96,0.00,,,0.01,,2013-02-20 02:31:00,
2013-02-20 02:41:00,35.0,34.0,30.12,East,97,1.0,3.0,96,0.00,,,0.01,,2013-02-20 02:41:00,
2013-02-20 03:21:00,36.0,35.0,30.13,East,94,1.0,6.0,96,0.00,,,0.01,,2013-02-20 03:21:00,
2013-02-20 03:32:00,36.0,35.0,30.13,East,96,2.0,7.0,97,0.00,,,0.01,,2013-02-20 03:32:00,
2013-02-20 03:41:00,36.0,35.0,30.13,East,96,2.0,7.0,97,0.00,,,0.01,,2013-02-20 03:41:00,
2013-02-20 03:51:00,36.0,35.0,30.13,East,96,2.0,7.0,97,0.00,,,0.01,,2013-02-20 03:51:00,
2013-02-20 04:01:00,37.0,36.0,30.13,East,94,1.0,4.0,96,0.00,,,0.01,,2013-02-20 04:01:00,
2013-02-20 04:11:00,37.0,36.0,30.13,East,94,1.0,4.0,96,0.00,,,0.01,,2013-02-20 04:11:00,
2013-02-20 04:21:00,37.0,36.0,30.13,North,0,0.0,1.0,96,0.00,,,0.01,,2013-02-20 04:21:00,
2013-02-20 04:31:00,37.0,36.0,30.13,North,0,0.0,1.0,96,0.00,,,0.01,,2013-02-20 04:31:00,
2013-02-20 04:41:00,37.0,36.0,30.13,North,0,0.0,1.0,96,0.00,,,0.01,,2013-02-20 04:41:00,
2013-02-20 04:51:00,37.0,36.0,30.13,North,0,0.0,1.0,96,0.00,,,0.01,,2013-02-20 04:51:00,
2013-02-20 05:22:00,37.0,35.0,30.15,North,0,0.0,1.0,94,0.00,,,0.01,,2013-02-20 05:22:00,
2013-02-20 05:32:00,37.0,35.0,30.15,North,0,0.0,1.0,94,0.00,,,0.01,,2013-02-20 05:32:00,
2013-02-20 05:43:00,37.0,35.0,30.15,North,0,0.0,1.0,94,0.00,,,0.01,,2013-02-20 05:43:00,
2013-02-20 05:52:00,37.0,35.0,30.15,North,0,0.0,1.0,94,0.00,,,0.01,,2013-02-20 05:52:00,
2013-02-20 06:01:00,37.0,35.0,30.15,North,0,0.0,1.0,94,0.00,,,0.01,,2013-02-20 06:01:00,
2013-02-20 06:11:00,37.0,36.0,30.15,North,0,0.0,1.0,95,0.02,,,0.03,,2013-02-20 06:11:00,
2013-02-20 06:21:00,37.0,36.0,30.15,North,0,0.0,1.0,95,0.02,,,0.03,,2013-02-20 06:21:00,
2013-02-20 06:32:00,37.0,36.0,30.15,North,0,0.0,1.0,95,0.02,,,0.03,,2013-02-20 06:32:00,
2013-02-20 06:42:00,37.0,36.0,30.15,North,0,0.0,1.0,95,0.02,,,0.03,,2013-02-20 06:42:00,
2013-02-20 06:52:00,37.0,36.0,30.15,North,0,0.0,1.0,95,0.02,,,0.03,,2013-02-20 06:52:00,
2013-02-20 07:01:00,37.0,36.0,30.15,North,0,0.0,1.0,95,0.02,,,0.03,,2013-02-20 07:01:00,
2013-02-20 07:52:00,38.0,37.0,30.17,East,96,1.0,6.0,97,0.01,,,0.05,,2013-02-20 07:52:00,
2013-02-20 08:10:00,38.0,37.0,30.19,East,95,3.0,10.0,96,0.01,,,0.06,,2013-02-20 08:10:00,
2013-02-20 08:11:00,38.0,37.0,30.17,East,96,1.0,6.0,97,0.01,,,0.05,,2013-02-20 08:11:00,
2013-02-20 08:21:00,38.0,37.0,30.17,East,96,1.0,6.0,97,0.01,,,0.05,,2013-02-20 08:21:00,
2013-02-20 08:32:00,38.0,37.0,30.19,East,95,3.0,10.0,96,0.01,,,0.06,,2013-02-20 08:32:00,
2013-02-20 08:42:00,38.0,37.0,30.19,East,95,3.0,10.0,96,0.01,,,0.06,,2013-02-20 08:42:00,
2013-02-20 08:52:00,38.0,37.0,30.19,East,95,3.0,10.0,96,0.01,,,0.06,,2013-02-20 08:52:00,
2013-02-20 09:01:00,38.0,37.0,30.19,East,95,3.0,10.0,96,0.01,,,0.06,,2013-02-20 09:01:00,
2013-02-20 09:32:00,38.0,36.0,30.20,East,98,6.0,14.0,91,0.00,,,0.06,,2013-02-20 09:32:00,
2013-02-20 09:42:00,38.0,36.0,30.20,East,98,6.0,14.0,91,0.00,,,0.06,,2013-02-20 09:42:00,
2013-02-20 09:52:00,38.0,36.0,30.20,East,98,6.0,14.0,91,0.00,,,0.06,,2013-02-20 09:52:00,
2013-02-20 10:01:00,38.0,36.0,30.20,East,98,6.0,14.0,91,0.00,,,0.06,,2013-02-20 10:01:00,
2013-02-20 10:11:00,38.0,36.0,30.20,East,98,6.0,14.0,91,0.00,,,0.06,,2013-02-20 10:11:00,
2013-02-20 10:21:00,38.0,35.0,30.20,East,97,4.0,11.0,89,0.00,,,0.06,,2013-02-20 10:21:00,
2013-02-20 10:31:00,38.0,34.0,30.21,East,90,3.0,8.0,87,0.00,,,0.06,,2013-02-20 10:31:00,
2013-02-20 10:41:00,38.0,34.0,30.21,East,90,3.0,8.0,87,0.00,,,0.06,,2013-02-20 10:41:00,
2013-02-20 10:51:00,38.0,34.0,30.21,East,90,3.0,8.0,87,0.00,,,0.06,,2013-02-20 10:51:00,
2013-02-20 11:01:00,38.0,34.0,30.22,East,100,3.0,10.0,84,0.00,,,0.06,,2013-02-20 11:01:00,
2013-02-20 11:11:00,38.0,33.0,30.22,East,100,5.0,12.0,81,0.00,,,0.05,,2013-02-20 11:11:00,
2013-02-20 11:21:00,38.0,33.0,30.22,East,100,5.0,12.0,81,0.00,,,0.05,,2013-02-20 11:21:00,
2013-02-20 11:31:00,39.0,33.0,30.22,East,98,6.0,14.0,79,0.00,,,0.05,,2013-02-20 11:31:00,
2013-02-20 11:41:00,39.0,33.0,30.22,East,98,6.0,14.0,79,0.00,,,0.05,,2013-02-20 11:41:00,
2013-02-20 11:52:00,39.0,33.0,30.22,East,98,6.0,14.0,79,0.00,,,0.05,,2013-02-20 11:52:00,
2013-02-20 12:01:00,39.0,33.0,30.22,East,98,6.0,14.0,79,0.00,,,0.05,,2013-02-20 12:01:00,
2013-02-20 12:11:00,39.0,33.0,30.22,East,98,6.0,14.0,79,0.00,,,0.05,,2013-02-20 12:11:00,
2013-02-20 12:22:00,39.0,32.0,30.23,East,96,6.0,13.0,75,0.00,,,0.05,,2013-02-20 12:22:00,
2013-02-20 12:32:00,39.0,32.0,30.23,East,96,6.0,13.0,75,0.00,,,0.05,,2013-02-20 12:32:00,
2013-02-20 12:42:00,39.0,32.0,30.23,East,96,6.0,13.0,75,0.00,,,0.05,,2013-02-20 12:42:00,
2013-02-20 12:52:00,39.0,32.0,30.23,East,96,6.0,13.0,75,0.00,,,0.05,,2013-02-20 12:52:00,
2013-02-20 13:01:00,39.0,31.0,30.22,East,98,6.0,15.0,73,0.00,,,0.05,,2013-02-20 13:01:00,
2013-02-20 13:11:00,39.0,31.0,30.22,East,98,6.0,15.0,73,0.00,,,0.05,,2013-02-20 13:11:00,
2013-02-20 13:22:00,39.0,31.0,30.22,East,98,5.0,14.0,73,0.00,,,0.05,,2013-02-20 13:22:00,
2013-02-20 13:31:00,39.0,31.0,30.22,East,98,5.0,14.0,73,0.00,,,0.05,,2013-02-20 13:31:00,
2013-02-20 13:42:00,39.0,31.0,30.22,East,98,5.0,14.0,73,0.00,,,0.05,,2013-02-20 13:42:00,
2013-02-20 13:51:00,40.0,31.0,30.22,East,96,5.0,15.0,70,0.00,,,0.05,,2013-02-20 13:51:00,
2013-02-20 14:01:00,40.0,31.0,30.22,East,97,6.0,14.0,70,0.00,,,0.05,,2013-02-20 14:01:00,
2013-02-20 14:11:00,40.0,31.0,30.22,East,97,6.0,14.0,70,0.00,,,0.05,,2013-02-20 14:11:00,
2013-02-20 14:21:00,40.0,31.0,30.22,East,97,6.0,14.0,70,0.00,,,0.05,,2013-02-20 14:21:00,
2013-02-20 14:32:00,40.0,31.0,30.22,East,98,5.0,13.0,71,0.00,,,0.05,,2013-02-20 14:32:00,
2013-02-20 14:42:00,39.0,30.0,30.22,East,94,6.0,13.0,70,0.00,,,0.05,,2013-02-20 14:42:00,
2013-02-20 14:52:00,39.0,30.0,30.22,East,94,6.0,13.0,70,0.00,,,0.05,,2013-02-20 14:52:00,
2013-02-20 15:01:00,39.0,30.0,30.22,East,94,6.0,13.0,70,0.00,,,0.05,,2013-02-20 15:01:00,
2013-02-20 15:11:00,39.0,30.0,30.22,East,94,6.0,13.0,70,0.00,,,0.05,,2013-02-20 15:11:00,
2013-02-20 15:22:00,39.0,30.0,30.22,East,94,6.0,13.0,70,0.00,,,0.05,,2013-02-20 15:22:00,
2013-02-20 15:32:00,38.0,29.0,30.22,East,90,4.0,13.0,70,0.00,,,0.05,,2013-02-20 15:32:00,
2013-02-20 15:42:00,39.0,30.0,30.21,East,99,4.0,13.0,71,0.00,,,0.05,,2013-02-20 15:42:00,
2013-02-20 15:52:00,39.0,30.0,30.21,East,99,4.0,13.0,71,0.00,,,0.05,,2013-02-20 15:52:00,
2013-02-20 16:01:00,39.0,30.0,30.21,East,99,4.0,13.0,71,0.00,,,0.05,,2013-02-20 16:01:00,
2013-02-20 16:11:00,38.0,29.0,30.21,East,98,3.0,12.0,71,0.00,,,0.05,,2013-02-20 16:11:00,
2013-02-20 16:21:00,38.0,29.0,30.21,East,98,3.0,12.0,71,0.00,,,0.05,,2013-02-20 16:21:00,
2013-02-20 16:32:00,38.0,29.0,30.21,East,98,5.0,13.0,71,0.00,,,0.05,,2013-02-20 16:32:00,
2013-02-20 16:41:00,38.0,29.0,30.21,East,98,5.0,13.0,71,0.00,,,0.05,,2013-02-20 16:41:00,
2013-02-20 16:51:00,37.0,28.0,30.21,East,93,5.0,12.0,71,0.00,,,0.05,,2013-02-20 16:51:00,
2013-02-20 17:01:00,37.0,28.0,30.21,East,93,5.0,12.0,71,0.00,,,0.05,,2013-02-20 17:01:00,
2013-02-20 17:11:00,37.0,29.0,30.22,East,96,5.0,15.0,72,0.00,,,0.05,,2013-02-20 17:11:00,
2013-02-20 17:21:00,37.0,29.0,30.22,East,96,5.0,15.0,72,0.00,,,0.05,,2013-02-20 17:21:00,
2013-02-20 17:32:00,36.0,28.0,30.21,East,98,5.0,13.0,73,0.00,,,0.05,,2013-02-20 17:32:00,
2013-02-20 17:41:00,36.0,28.0,30.21,East,98,5.0,13.0,73,0.00,,,0.05,,2013-02-20 17:41:00,
2013-02-20 17:52:00,36.0,28.0,30.21,East,98,5.0,13.0,73,0.00,,,0.05,,2013-02-20 17:52:00,
2013-02-20 18:02:00,36.0,28.0,30.21,East,98,5.0,13.0,73,0.00,,,0.05,,2013-02-20 18:02:00,
2013-02-20 18:11:00,36.0,28.0,30.21,East,98,5.0,13.0,73,0.00,,,0.05,,2013-02-20 18:11:00,
2013-02-20 18:32:00,35.0,28.0,30.23,East,99,6.0,15.0,75,0.00,,,0.05,,2013-02-20 18:32:00,
2013-02-20 18:42:00,35.0,28.0,30.23,East,99,6.0,15.0,75,0.00,,,0.05,,2013-02-20 18:42:00,
2013-02-20 18:52:00,35.0,28.0,30.23,East,99,6.0,15.0,75,0.00,,,0.05,,2013-02-20 18:52:00,
2013-02-20 19:01:00,35.0,28.0,30.23,East,99,6.0,15.0,75,0.00,,,0.05,,2013-02-20 19:01:00,
2013-02-20 19:11:00,35.0,28.0,30.23,East,99,6.0,15.0,75,0.00,,,0.05,,2013-02-20 19:11:00,
2013-02-20 19:21:00,35.0,28.0,30.24,East,97,7.0,21.0,74,0.00,,,0.05,,2013-02-20 19:21:00,
2013-02-20 19:32:00,35.0,28.0,30.24,East,97,7.0,21.0,74,0.00,,,0.05,,2013-02-20 19:32:00,
2013-02-20 19:41:00,35.0,28.0,30.24,East,97,7.0,21.0,74,0.00,,,0.05,,2013-02-20 19:41:00,
2013-02-20 19:52:00,35.0,28.0,30.24,East,96,8.0,17.0,75,0.00,,,0.05,,2013-02-20 19:52:00,
2013-02-20 20:01:00,35.0,28.0,30.24,East,96,8.0,17.0,75,0.00,,,0.05,,2013-02-20 20:01:00,
2013-02-20 20:11:00,35.0,28.0,30.24,East,100,5.0,12.0,76,0.00,,,0.05,,2013-02-20 20:11:00,
2013-02-20 20:21:00,35.0,28.0,30.24,East,100,5.0,12.0,76,0.00,,,0.05,,2013-02-20 20:21:00,
2013-02-20 20:31:00,35.0,28.0,30.24,East,100,5.0,12.0,76,0.00,,,0.05,,2013-02-20 20:31:00,
2013-02-20 20:41:00,35.0,28.0,30.24,East,100,5.0,12.0,76,0.00,,,0.05,,2013-02-20 20:41:00,
2013-02-20 20:51:00,35.0,28.0,30.24,East,100,5.0,12.0,76,0.00,,,0.05,,2013-02-20 20:51:00,
2013-02-20 21:01:00,35.0,28.0,30.25,East,99,6.0,14.0,75,0.00,,,0.05,,2013-02-20 21:01:00,
2013-02-20 21:11:00,35.0,28.0,30.25,East,99,6.0,14.0,75,0.00,,,0.05,,2013-02-20 21:11:00,
2013-02-20 21:21:00,35.0,28.0,30.25,East,99,6.0,14.0,75,0.00,,,0.05,,2013-02-20 21:21:00,
2013-02-20 21:31:00,35.0,28.0,30.25,East,99,6.0,14.0,75,0.00,,,0.05,,2013-02-20 21:31:00,
2013-02-20 21:41:00,35.0,28.0,30.25,East,99,6.0,14.0,75,0.00,,,0.05,,2013-02-20 21:41:00,
2013-02-20 21:52:00,35.0,28.0,30.25,East,97,5.0,14.0,75,0.00,,,0.05,,2013-02-20 21:52:00,
2013-02-20 22:01:00,35.0,28.0,30.25,East,98,6.0,18.0,74,0.00,,,0.05,,2013-02-20 22:01:00,
2013-02-20 22:11:00,35.0,28.0,30.25,East,98,6.0,18.0,74,0.00,,,0.05,,2013-02-20 22:11:00,
2013-02-20 22:21:00,35.0,28.0,30.25,East,98,6.0,18.0,74,0.00,,,0.05,,2013-02-20 22:21:00,
2013-02-20 22:31:00,35.0,27.0,30.24,East,95,7.0,20.0,73,0.00,,,0.05,,2013-02-20 22:31:00,
2013-02-20 22:41:00,35.0,27.0,30.24,East,95,7.0,20.0,73,0.00,,,0.05,,2013-02-20 22:41:00,
2013-02-20 22:51:00,35.0,27.0,30.24,East,97,5.0,11.0,73,0.00,,,0.05,,2013-02-20 22:51:00,
2013-02-20 23:01:00,35.0,27.0,30.24,East,97,5.0,11.0,73,0.00,,,0.05,,2013-02-20 23:01:00,
2013-02-20 23:11:00,35.0,27.0,30.24,East,95,5.0,14.0,73,0.00,,,0.05,,2013-02-20 23:11:00,
2013-02-20 23:21:00,35.0,27.0,30.24,East,95,5.0,14.0,73,0.00,,,0.05,,2013-02-20 23:21:00,
2013-02-20 23:31:00,35.0,27.0,30.24,East,95,5.0,16.0,73,0.00,,,0.05,,2013-02-20 23:31:00,
2013-02-20 23:42:00,35.0,27.0,30.24,East,95,5.0,16.0,73,0.00,,,0.05,,2013-02-20 23:42:00,
2013-02-20 23:52:00,35.0,28.0,30.24,East,93,4.0,10.0,74,0.00,,,0.05,,2013-02-20 23:52:00,